• In Hungary
  • List of Countries
  • For 7 days
  • Water Temperature
  • Satellite Maps
  • Weather Map
  • News
  • Weather Widgets
  • user-avatar
    Login

    Hourly Weather Zhemchuzhnyy

    Today, 23 October, Tuesday

    Time Temperature Precipitation Wind Pressure Humidity
    00:00 +10°C° 0 mm 4 mps 746 mmHg 77%
    01:00 +10°C° 0.1 mm 4 mps 745 mmHg 79%
    02:00 +10°C° 0.1 mm 3 mps 744 mmHg 79%
    03:00 +10°C° 0.1 mm 3 mps 744 mmHg 80%
    04:00 +10°C° 0.4 mm 4 mps 743 mmHg 82%
    05:00 +10°C° 0.4 mm 4 mps 742 mmHg 85%
    06:00 +8°C° 0.4 mm 4 mps 742 mmHg 88%
    07:00 +8°C° 0.3 mm 4 mps 741 mmHg 88%
    08:00 +9°C° 0.3 mm 5 mps 741 mmHg 88%
    09:00 +9°C° 0.3 mm 5 mps 740 mmHg 88%
    10:00 +9°C° 0.4 mm 5 mps 740 mmHg 87%
    11:00 +9°C° 0.4 mm 5 mps 739 mmHg 86%
    12:00 +9°C° 0.4 mm 5 mps 739 mmHg 85%
    13:00 +9°C° 0.2 mm 5 mps 739 mmHg 79%
    14:00 +10°C° 0.2 mm 4 mps 738 mmHg 72%
    15:00 +10°C° 0.2 mm 4 mps 738 mmHg 66%
    16:00 +8°C° 0 mm 4 mps 738 mmHg 68%
    17:00 +8°C° 0 mm 3 mps 737 mmHg 70%
    18:00 +7°C° 0 mm 3 mps 737 mmHg 72%
    19:00 +7°C° 0 mm 3 mps 737 mmHg 72%
    20:00 +5°C° 0 mm 3 mps 737 mmHg 73%
    21:00 +5°C° 0 mm 3 mps 737 mmHg 74%
    22:00 +5°C° 0 mm 3 mps 736 mmHg 74%
    23:00 +5°C° 0 mm 3 mps 735 mmHg 75%

    Tomorrow, 24 October, Wednesday

    Time Temperature Precipitation Wind Pressure Humidity
    00:00 +4°C° 0 mm 4 mps 735 mmHg 76%
    01:00 +4°C° 0 mm 4 mps 734 mmHg 76%
    02:00 +4°C° 0 mm 4 mps 734 mmHg 77%
    03:00 +4°C° 0 mm 4 mps 733 mmHg 78%
    04:00 +3°C° 0 mm 5 mps 733 mmHg 78%
    05:00 +3°C° 0 mm 5 mps 732 mmHg 78%
    06:00 +3°C° 0 mm 5 mps 731 mmHg 78%
    07:00 +3°C° 0 mm 6 mps 731 mmHg 75%
    08:00 +4°C° 0 mm 6 mps 731 mmHg 73%
    09:00 +5°C° 0 mm 7 mps 730 mmHg 70%
    10:00 +5°C° 0.6 mm 7 mps 730 mmHg 72%
    11:00 +5°C° 0.6 mm 8 mps 729 mmHg 74%
    12:00 +5°C° 0.6 mm 8 mps 729 mmHg 76%
    13:00 +6°C° 0.3 mm 8 mps 728 mmHg 76%
    14:00 +7°C° 0.3 mm 8 mps 728 mmHg 75%
    15:00 +7°C° 0.3 mm 8 mps 727 mmHg 75%
    16:00 +8°C° 0.1 mm 7 mps 727 mmHg 79%
    17:00 +8°C° 0.1 mm 6 mps 727 mmHg 82%
    18:00 +8°C° 0.1 mm 5 mps 727 mmHg 86%
    19:00 +8°C° 0.2 mm 5 mps 726 mmHg 88%
    20:00 +8°C° 0.2 mm 5 mps 726 mmHg 89%
    21:00 +8°C° 0.2 mm 5 mps 726 mmHg 91%
    22:00 +7°C° 0 mm 5 mps 725 mmHg 91%
    23:00 +7°C° 0 mm 5 mps 725 mmHg 92%

    Day after tomorrow, 25 October, Thursday

    Time Temperature Precipitation Wind Pressure Humidity
    00:00 +7°C° 0 mm 5 mps 724 mmHg 92%
    01:00 +8°C° 0.4 mm 6 mps 724 mmHg 91%
    02:00 +8°C° 0.4 mm 7 mps 723 mmHg 89%
    03:00 +9°C° 0.4 mm 7 mps 723 mmHg 88%
    04:00 +9°C° 0.2 mm 7 mps 722 mmHg 87%
    05:00 +9°C° 0.2 mm 7 mps 722 mmHg 86%
    06:00 +9°C° 0.2 mm 7 mps 721 mmHg 85%
    07:00 +9°C° 0.2 mm 8 mps 721 mmHg 82%
    08:00 +9°C° 0.2 mm 8 mps 721 mmHg 79%
    09:00 +7°C° 0.2 mm 9 mps 721 mmHg 75%
    10:00 +7°C° 0.2 mm 9 mps 721 mmHg 71%
    11:00 +7°C° 0.2 mm 10 mps 721 mmHg 66%
    12:00 +7°C° 0.2 mm 10 mps 722 mmHg 61%
    13:00 +6°C° 0 mm 10 mps 722 mmHg 62%
    14:00 +6°C° 0 mm 10 mps 722 mmHg 62%
    15:00 +6°C° 0 mm 10 mps 723 mmHg 63%
    16:00 +5°C° 0 mm 10 mps 724 mmHg 65%
    17:00 +5°C° 0 mm 9 mps 724 mmHg 67%
    18:00 +5°C° 0 mm 8 mps 725 mmHg 70%
    19:00 +5°C° 0 mm 8 mps 725 mmHg 72%
    20:00 +4°C° 0 mm 7 mps 726 mmHg 73%
    21:00 +4°C° 0 mm 6 mps 727 mmHg 75%
    22:00 +4°C° 0 mm 6 mps 727 mmHg 78%
    23:00 +3°C° 0 mm 5 mps 728 mmHg 80%

    26 October, Friday

    Time Temperature Precipitation Wind Pressure Humidity
    00:00 +3°C° 0 mm 5 mps 728 mmHg 82%
    01:00 +3°C° 0.1 mm 4 mps 728 mmHg 83%
    02:00 +3°C° 0.1 mm 4 mps 729 mmHg 84%
    03:00 +3°C° 0.1 mm 4 mps 729 mmHg 85%
    04:00 +3°C° 0.1 mm 4 mps 729 mmHg 84%
    05:00 +3°C° 0.1 mm 4 mps 730 mmHg 83%
    06:00 +1°C° 0.1 mm 4 mps 730 mmHg 82%
    07:00 +1°C° 0 mm 4 mps 731 mmHg 78%
    08:00 +2°C° 0 mm 5 mps 731 mmHg 74%
    09:00 +2°C° 0 mm 5 mps 732 mmHg 70%
    10:00 +2°C° 0 mm 6 mps 732 mmHg 65%
    11:00 +3°C° 0 mm 6 mps 733 mmHg 59%
    12:00 +4°C° 0 mm 6 mps 733 mmHg 53%
    13:00 +4°C° 0 mm 6 mps 734 mmHg 54%
    14:00 +4°C° 0 mm 6 mps 734 mmHg 55%
    15:00 +4°C° 0 mm 6 mps 735 mmHg 55%
    16:00 +3°C° 0 mm 5 mps 735 mmHg 61%
    17:00 +3°C° 0 mm 4 mps 736 mmHg 66%
    18:00 +2°C° 0 mm 3 mps 736 mmHg 71%
    19:00 +2°C° 0 mm 3 mps 737 mmHg 73%
    20:00 +2°C° 0 mm 3 mps 737 mmHg 75%
    21:00 +1°C° 0 mm 3 mps 738 mmHg 77%
    22:00 0°C° 0 mm 4 mps 738 mmHg 77%
    23:00 0°C° 0 mm 4 mps 739 mmHg 77%

    27 October, Saturday

    Time Temperature Precipitation Wind Pressure Humidity
    00:00 0°C° 0 mm 4 mps 739 mmHg 76%
    01:00 0°C° 0 mm 4 mps 739 mmHg 78%
    02:00 0°C° 0 mm 4 mps 740 mmHg 80%
    03:00 0°C° 0 mm 4 mps 740 mmHg 83%
    04:00 0°C° 0 mm 4 mps 741 mmHg 85%
    05:00 0°C° 0 mm 4 mps 741 mmHg 88%
    06:00 -1°C° 0 mm 4 mps 742 mmHg 91%
    07:00 0°C° 0 mm 4 mps 742 mmHg 87%
    08:00 +1°C° 0 mm 4 mps 743 mmHg 83%
    09:00 +1°C° 0 mm 5 mps 744 mmHg 79%
    10:00 +2°C° 0 mm 5 mps 744 mmHg 73%
    11:00 +3°C° 0 mm 5 mps 744 mmHg 66%
    12:00 +6°C° 0 mm 5 mps 745 mmHg 60%
    13:00 +6°C° 0 mm 5 mps 745 mmHg 60%
    14:00 +6°C° 0 mm 5 mps 745 mmHg 60%
    15:00 +7°C° 0 mm 5 mps 745 mmHg 60%
    16:00 +6°C° 0 mm 4 mps 745 mmHg 64%
    17:00 +5°C° 0 mm 4 mps 745 mmHg 67%
    18:00 +5°C° 0 mm 3 mps 746 mmHg 70%
    19:00 +5°C° 0 mm 3 mps 746 mmHg 71%
    20:00 +5°C° 0 mm 4 mps 746 mmHg 72%
    21:00 +5°C° 0 mm 4 mps 746 mmHg 73%
    22:00 +5°C° 0 mm 4 mps 746 mmHg 74%
    23:00 +5°C° 0 mm 5 mps 746 mmHg 74%

    28 October, Sunday

    Time Temperature Precipitation Wind Pressure Humidity
    00:00 +5°C° 0 mm 5 mps 745 mmHg 74%
    01:00 +5°C° 0 mm 5 mps 745 mmHg 74%
    02:00 +5°C° 0 mm 5 mps 745 mmHg 74%
    03:00 +4°C° 0 mm 6 mps 745 mmHg 74%
    04:00 +5°C° 0.1 mm 6 mps 745 mmHg 76%
    05:00 +5°C° 0.1 mm 6 mps 745 mmHg 78%
    06:00 +5°C° 0.1 mm 7 mps 745 mmHg 79%
    07:00 +6°C° 0.3 mm 7 mps 745 mmHg 80%
    08:00 +8°C° 0.3 mm 7 mps 745 mmHg 81%
    09:00 +7°C° 0.3 mm 8 mps 745 mmHg 82%
    10:00 +9°C° 0 mm 8 mps 745 mmHg 78%
    11:00 +11°C° 0 mm 8 mps 745 mmHg 73%
    12:00 +12°C° 0 mm 9 mps 745 mmHg 68%
    13:00 +12°C° 0 mm 8 mps 745 mmHg 67%
    14:00 +13°C° 0 mm 8 mps 744 mmHg 65%
    15:00 +13°C° 0 mm 8 mps 744 mmHg 64%
    16:00 +13°C° 0 mm 8 mps 744 mmHg 66%
    17:00 +12°C° 0 mm 8 mps 744 mmHg 68%
    18:00 +12°C° 0 mm 8 mps 744 mmHg 71%
    19:00 +12°C° 0 mm 8 mps 744 mmHg 71%
    20:00 +12°C° 0 mm 8 mps 744 mmHg 72%
    21:00 +12°C° 0 mm 8 mps 744 mmHg 72%
    22:00 +11°C° 0 mm 8 mps 744 mmHg 72%
    23:00 +11°C° 0 mm 8 mps 744 mmHg 72%

    29 October, Monday

    Time Temperature Precipitation Wind Pressure Humidity
    00:00 +11°C° 0 mm 8 mps 744 mmHg 72%
    01:00 +11°C° 0 mm 8 mps 744 mmHg 72%
    02:00 +11°C° 0 mm 7 mps 744 mmHg 71%
    03:00 +11°C° 0 mm 7 mps 744 mmHg 71%
    04:00 +11°C° 0 mm 7 mps 744 mmHg 71%
    05:00 +11°C° 0 mm 7 mps 744 mmHg 72%
    06:00 +11°C° 0 mm 7 mps 744 mmHg 72%
    07:00 +11°C° 0 mm 7 mps 745 mmHg 72%
    08:00 +11°C° 0 mm 7 mps 745 mmHg 72%
    09:00 +11°C° 0 mm 7 mps 746 mmHg 73%
    10:00 +13°C° 0 mm 6 mps 746 mmHg 72%
    11:00 +14°C° 0 mm 6 mps 746 mmHg 71%
    12:00 +15°C° 0 mm 6 mps 747 mmHg 70%
    13:00 +15°C° 0 mm 5 mps 747 mmHg 72%
    14:00 +15°C° 0 mm 4 mps 747 mmHg 73%
    15:00 +15°C° 0 mm 4 mps 748 mmHg 75%
    16:00 +14°C° 0.1 mm 3 mps 748 mmHg 78%
    17:00 +14°C° 0.1 mm 3 mps 748 mmHg 81%
    18:00 +14°C° 0.1 mm 2 mps 749 mmHg 84%
    19:00 +13°C° 0 mm 2 mps 749 mmHg 84%
    20:00 +13°C° 0 mm 2 mps 749 mmHg 84%
    21:00 +13°C° 0 mm 2 mps 750 mmHg 85%
    22:00 +12°C° 0 mm 2 mps 750 mmHg 84%
    23:00 +12°C° 0 mm 2 mps 750 mmHg 84%
    Show more